Location: Newark
(48.8833°N, 0.9236°W)
Time: 14:16:30
(UTC+00:00)

Tiros 1 despin weight - Pass Details

Date: 18 November 2019
Orbit: 594 x 642 km, 48.2° (Epoch: 10 December)

Event Time Altitude Azimuth Distance (km) Brightness Sun altitude
Rises 17:19:20 0° 277° (W) 2,843 ? -9.7°
Reaches altitude 10° 17:21:37 10° 276° (W) 1,945 ? -10.1°
Maximum altitude 17:26:04 72° 192° (SSW) 640 ? -10.8°
Enters shadow 17:30:27 11° 109° (ESE) 1,926 ? -11.5°
Drops below altitude 10° 17:30:34 10° 109° (ESE) 1,969 - -11.5°
Sets 17:32:54 0° 107° (ESE) 2,882 - -11.9°
